K8MUD Weather Reports


Display with metric or nautical units.
time (UTC)temp
F
wind
direction
speed
MPH
gust
MPH
rain 1hr
in
rain 24hr
in
rain mn
in
humidity
%
barometer
mb
20260831224501 79 218 2.0 5.0 0.00 0.00 0.00 77 1014.4
20260831224428 79 222 2.0 5.0 0.00 0.00 0.00 77 1014.4
20260831224023 79 214 2.0 6.0 0.00 0.00 0.00 77 1014.7
20260831223928 79 212 2.0 6.0 0.00 0.00 0.00 77 1014.6
20260831223502 78 239 2.0 7.0 0.00 0.00 0.00 78 1014.4
20260831223428 78 233 3.0 7.0 0.00 0.00 0.00 78 1014.4
20260831223004 78 248 2.0 7.0 0.00 0.00 0.00 79 1014.8
20260831222927 78 251 3.0 7.0 0.00 0.00 0.00 79 1014.8
20260831222501 78 244 3.0 8.0 0.00 0.00 0.00 80 1015.0
20260831222428 78 243 2.0 8.0 0.00 0.00 0.00 80 1014.9
20260831222002 78 226 3.0 8.0 0.00 0.00 0.00 81 1014.7
20260831221927 78 213 2.0 8.0 0.00 0.00 0.00 81 1014.4
20260831221501 77 186 2.0 7.0 0.00 0.00 0.00 82 1014.2
20260831221427 77 178 2.0 5.0 0.00 0.00 0.00 82 1014.1
20260831221001 77 166 1.0 5.0 0.00 0.00 0.00 82 1014.2
20260831220927 77 167 1.0 5.0 0.00 0.00 0.00 82 1014.1
20260831220502 77 172 2.0 5.0 0.00 0.00 0.00 82 1014.0
20260831220427 77 174 2.0 5.0 0.00 0.00 0.00 82 1014.0
20260831220001 77 173 2.0 5.0 0.00 0.00 0.00 82 1014.1
20260831215927 77 172 2.0 5.0 0.00 0.00 0.00 82 1014.3
20260831215501 77 172 2.0 6.0 0.00 0.00 0.00 83 1014.4
20260831215427 76 172 2.0 11.0 0.00 0.00 0.00 83 1014.4
20260831215002 76 169 3.0 11.0 0.00 0.00 0.00 83 1014.5
20260831214927 76 168 3.0 11.0 0.00 0.00 0.00 82 1014.5
20260831214525 76 166 3.0 11.0 0.00 0.00 0.00 82 1014.5
20260831214427 76 164 3.0 6.0 0.00 0.00 0.00 82 1014.5
20260831214001 76 164 2.0 6.0 0.00 0.00 0.00 83 1014.5
20260831213927 76 167 2.0 6.0 0.00 0.00 0.00 83 1014.6
20260831213526 76 167 2.0 6.0 0.00 0.00 0.00 84 1014.6
20260831213427 76 167 2.0 6.0 0.00 0.00 0.00 84 1014.6
20260831213002 76 160 2.0 6.0 0.00 0.00 0.00 84 1014.9
20260831212927 76 152 2.0 6.0 0.00 0.00 0.00 84 1014.9
20260831212522 76 142 2.0 6.0 0.00 0.00 0.00 84 1014.9
20260831212427 76 141 2.0 6.0 0.00 0.00 0.00 84 1014.9
20260831212001 76 139 2.0 5.0 0.00 0.00 0.00 84 1015.0
20260831211927 77 143 2.0 5.0 0.00 0.00 0.00 84 1015.0
20260831211502 77 147 2.0 5.0 0.00 0.00 0.00 83 1015.0
20260831211427 77 146 2.0 5.0 0.00 0.00 0.00 83 1015.0
20260831211002 77 146 2.0 5.0 0.00 0.00 0.00 83 1015.1
20260831210926 77 147 2.0 5.0 0.00 0.00 0.00 83 1015.1
20260831210502 77 149 1.0 4.0 0.00 0.00 0.00 83 1015.2
20260831210426 77 151 1.0 5.0 0.00 0.00 0.00 83 1015.2
20260831210001 77 150 1.0 5.0 0.00 0.00 0.00 83 1015.3
20260831205926 77 148 1.0 5.0 0.00 0.00 0.00 83 1015.3
20260831205523 77 146 1.0 5.0 0.00 0.00 0.00 84 1015.4
20260831205426 77 144 1.0 4.0 0.00 0.00 0.00 84 1015.4
20260831205023 77 140 1.0 4.0 0.00 0.00 0.00 84 1015.4
20260831204926 77 141 1.0 4.0 0.00 0.00 0.00 84 1015.4
20260831204502 77 142 1.0 4.0 0.00 0.00 0.00 84 1015.4
20260831204426 77 142 1.0 4.0 0.00 0.00 0.00 84 1015.4
20260831204025 77 144 0.0 3.0 0.00 0.00 0.00 84 1015.4
20260831203926 77 144 0.0 2.0 0.00 0.00 0.00 84 1015.4
20260831203501 77 90 0.0 2.0 0.00 0.00 0.00 85 1015.5
20260831203426 77 90 0.0 2.0 0.00 0.00 0.00 85 1015.5
20260831203023 77 90 1.0 3.0 0.00 0.00 0.00 86 1015.5
20260831202926 77 90 1.0 3.0 0.00 0.00 0.00 86 1015.4
20260831202502 77 90 1.0 3.0 0.00 0.00 0.00 87 1015.5
20260831202426 77 90 1.0 3.0 0.00 0.00 0.00 86 1015.5
20260831202001 77 90 2.0 3.0 0.00 0.00 0.00 87 1015.5
20260831201926 77 89 2.0 3.0 0.00 0.00 0.00 87 1015.6
20260831201502 77 92 2.0 4.0 0.00 0.00 0.00 86 1015.7
20260831201426 76 94 2.0 4.0 0.00 0.00 0.00 86 1015.7
20260831201005 76 98 2.0 4.0 0.00 0.00 0.00 86 1015.8
20260831200926 76 100 2.0 4.0 0.00 0.00 0.00 86 1015.8
20260831200504 76 104 2.0 4.0 0.00 0.00 0.00 87 1015.9
20260831200426 76 104 2.0 4.0 0.00 0.00 0.00 87 1015.9
20260831200002 76 102 2.0 4.0 0.00 0.00 0.00 86 1016.1
20260831195925 76 101 2.0 4.0 0.00 0.00 0.00 86 1016.1
20260831195501 76 98 2.0 4.0 0.00 0.00 0.00 86 1016.1
20260831195425 76 98 2.0 4.0 0.00 0.00 0.00 86 1016.1
20260831195002 76 99 2.0 4.0 0.00 0.00 0.00 86 1016.1
20260831194925 77 100 2.0 4.0 0.00 0.00 0.00 86 1016.1
20260831194502 77 100 2.0 3.0 0.00 0.00 0.00 86 1016.1
20260831194425 77 101 2.0 3.0 0.00 0.00 0.00 86 1016.1
20260831194005 77 101 2.0 3.0 0.00 0.00 0.00 86 1016.2
20260831193925 77 101 2.0 4.0 0.00 0.00 0.00 86 1016.2
20260831193502 77 101 2.0 4.0 0.00 0.00 0.00 85 1016.1
20260831193425 77 101 2.0 4.0 0.00 0.00 0.00 85 1016.1
20260831193001 77 101 2.0 4.0 0.00 0.00 0.00 85 1016.2
20260831192925 77 101 2.0 3.0 0.00 0.00 0.00 84 1016.0
20260831192501 78 99 2.0 4.0 0.00 0.00 0.00 84 1016.2
20260831192425 78 98 2.0 4.0 0.00 0.00 0.00 84 1016.1
20260831192002 78 96 2.0 4.0 0.00 0.00 0.00 83 1016.2
20260831191925 78 95 2.0 4.0 0.00 0.00 0.00 83 1016.1
20260831191505 78 93 1.0 4.0 0.00 0.00 0.00 83 1016.2
20260831191425 78 93 1.0 4.0 0.00 0.00 0.00 83 1016.1
20260831191002 78 89 1.0 7.0 0.00 0.00 0.00 84 1016.1
20260831190925 78 89 1.0 7.0 0.00 0.00 0.00 84 1016.1
20260831190501 78 84 2.0 7.0 0.00 0.00 0.00 83 1016.1
20260831190425 78 80 2.0 7.0 0.00 0.00 0.00 83 1016.2
20260831190026 78 64 1.0 5.0 0.00 0.00 0.00 82 1016.5
20260831185925 78 63 2.0 5.0 0.00 0.00 0.00 81 1016.5
20260831185502 79 57 2.0 6.0 0.00 0.00 0.00 80 1016.5
20260831185425 79 56 2.0 6.0 0.00 0.00 0.00 80 1016.4
20260831185023 79 53 2.0 6.0 0.00 0.00 0.00 79 1016.3
20260831184924 79 51 2.0 6.0 0.00 0.00 0.00 79 1016.2
20260831184522 80 47 2.0 4.0 0.00 0.00 0.00 79 1016.2
20260831184424 80 45 2.0 4.0 0.00 0.00 0.00 79 1016.2
20260831184002 80 41 1.0 3.0 0.00 0.00 0.00 78 1016.0
20260831183924 80 40 1.0 3.0 0.00 0.00 0.00 77 1016.0
20260831183502 80 40 1.0 3.0 0.00 0.00 0.00 76 1016.0
20260831183424 80 40 1.0 3.0 0.00 0.00 0.00 75 1016.0
20260831183001 80 24 1.0 3.0 0.00 0.00 0.00 76 1015.9
20260831182924 80 23 1.0 3.0 0.00 0.00 0.00 76 1015.9
20260831182501 81 355 1.0 3.0 0.00 0.00 0.00 75 1016.0
20260831182424 81 325 1.0 3.0 0.00 0.00 0.00 75 1016.0
20260831182023 81 279 0.0 3.0 0.00 0.00 0.00 76 1016.0
20260831181924 81 279 0.0 3.0 0.00 0.00 0.00 76 1016.0
20260831181523 80 279 0.0 3.0 0.00 0.00 0.00 76 1015.8
20260831181424 80 279 0.0 3.0 0.00 0.00 0.00 76 1015.7
20260831181002 80 279 1.0 2.0 0.00 0.00 0.00 75 1015.7
20260831180924 80 279 1.0 2.0 0.00 0.00 0.00 75 1015.6
20260831180501 80 279 1.0 2.0 0.00 0.00 0.00 74 1015.6
20260831180424 80 279 1.0 2.0 0.00 0.00 0.00 75 1015.7
20260831180002 80 279 0.0 3.0 0.00 0.00 0.00 75 1015.7
20260831175924 80 279 1.0 3.0 0.00 0.00 0.00 75 1015.9
20260831175501 80 279 1.0 3.0 0.00 0.00 0.00 75 1016.0
20260831175424 80 279 1.0 3.0 0.00 0.00 0.00 74 1016.0
20260831175023 80 279 1.0 3.0 0.00 0.00 0.00 75 1016.1
20260831174923 80 279 1.0 3.0 0.00 0.00 0.00 74 1016.0
20260831174502 80 279 1.0 3.0 0.00 0.00 0.00 77 1016.0
20260831174424 80 279 1.0 3.0 0.00 0.00 0.00 77 1016.1
20260831174004 79 279 1.0 3.0 0.00 0.00 0.00 78 1016.0
20260831173923 79 279 1.0 3.0 0.00 0.00 0.00 78 1015.9
20260831173502 79 279 1.0 3.0 0.00 0.00 0.00 79 1016.0
20260831173423 79 279 0.0 3.0 0.00 0.00 0.00 79 1016.0
20260831173023 79 279 0.0 1.0 0.00 0.00 0.00 79 1016.0
20260831172923 79 0 0.0 0.0 0.00 0.00 0.00 80 1016.0
20260831172522 79 0 0.0 0.0 0.00 0.00 0.00 78 1016.0
20260831172423 79 279 0.0 1.0 0.00 0.00 0.00 78 1015.9
20260831172005 79 281 1.0 4.0 0.00 0.00 0.00 78 1015.9
20260831171923 79 277 1.0 4.0 0.00 0.00 0.00 77 1015.9
20260831171502 80 269 2.0 4.0 0.00 0.00 0.00 76 1016.2
20260831171423 80 268 2.0 4.0 0.00 0.00 0.00 76 1016.2
20260831171001 80 256 2.0 5.0 0.00 0.00 0.00 76 1016.4
20260831170923 80 256 2.0 5.0 0.00 0.00 0.00 75 1016.4
20260831170502 80 263 3.0 9.0 0.00 0.00 0.00 75 1016.7
20260831170423 80 268 4.0 9.0 0.00 0.01 0.00 75 1016.7
20260831170023 81 277 4.0 9.0 0.00 0.01 0.00 74 1017.0
20260831165923 81 282 4.0 9.0 0.00 0.01 0.00 74 1017.0
20260831165522 81 290 4.0 9.0 0.00 0.01 0.00 73 1017.2
20260831165423 81 287 4.0 10.0 0.00 0.01 0.00 73 1017.3
20260831165003 82 285 5.0 11.0 0.00 0.02 0.00 72 1017.3
20260831164923 82 284 6.0 11.0 0.00 0.02 0.00 71 1017.3
20260831164502 82 280 6.0 11.0 0.00 0.02 0.00 70 1017.4
20260831164423 82 281 6.0 11.0 0.00 0.02 0.00 70 1017.3
20260831164001 82 280 5.0 10.0 0.00 0.02 0.00 70 1017.3
20260831163923 82 280 4.0 10.0 0.00 0.02 0.00 70 1017.3
20260831163502 82 286 3.0 10.0 0.00 0.03 0.00 71 1017.3
20260831163423 82 289 3.0 10.0 0.00 0.03 0.00 71 1017.1
20260831163023 82 283 3.0 8.0 0.00 0.04 0.00 72 1017.2
20260831162922 82 280 3.0 8.0 0.00 0.04 0.00 72 1017.1
20260831162505 82 269 3.0 8.0 0.00 0.05 0.00 72 1017.2
20260831162422 82 266 3.0 8.0 0.00 0.05 0.00 72 1017.1
20260831162002 81 267 3.0 8.0 0.00 0.06 0.00 73 1017.1
20260831161922 81 267 3.0 8.0 0.00 0.06 0.00 73 1017.1
20260831161502 81 266 3.0 8.0 0.00 0.06 0.00 74 1017.1
20260831161422 81 265 4.0 8.0 0.00 0.06 0.00 73 1017.1
20260831161002 80 264 4.0 10.0 0.00 0.06 0.00 74 1017.1
20260831160922 80 263 5.0 11.0 0.00 0.06 0.00 74 1017.1
20260831160502 80 263 4.0 11.0 0.00 0.06 0.00 75 1017.2
20260831160422 80 262 4.0 11.0 0.00 0.06 0.00 76 1017.2
20260831160002 79 263 3.0 11.0 0.00 0.06 0.00 77 1017.1
20260831155922 79 265 3.0 8.0 0.00 0.06 0.00 77 1017.1
20260831155504 79 263 3.0 8.0 0.00 0.06 0.00 77 1017.2
20260831155422 79 266 3.0 8.0 0.00 0.06 0.00 77 1017.2
20260831155002 79 264 3.0 8.0 0.00 0.06 0.00 77 1017.1
20260831154922 79 263 3.0 8.0 0.00 0.06 0.00 77 1017.1
20260831154502 79 265 2.0 6.0 0.00 0.07 0.00 78 1017.1
20260831154422 78 265 2.0 7.0 0.00 0.07 0.00 78 1017.1
20260831154026 78 259 3.0 12.0 0.00 0.08 0.00 78 1016.9
20260831153922 78 259 3.0 12.0 0.00 0.08 0.00 78 1016.9
20260831153502 78 260 3.0 12.0 0.00 0.08 0.00 78 1017.0
20260831153422 78 259 2.0 12.0 0.00 0.08 0.00 78 1017.0
20260831153002 78 265 2.0 8.0 0.00 0.08 0.00 78 1016.9
20260831152922 78 265 1.0 6.0 0.00 0.08 0.00 78 1016.8
20260831152505 78 260 1.0 6.0 0.00 0.08 0.00 79 1016.7
20260831152421 78 259 1.0 6.0 0.00 0.09 0.00 79 1016.7
20260831152002 78 240 1.0 5.0 0.00 0.09 0.00 80 1016.6
20260831151921 78 238 1.0 5.0 0.00 0.09 0.00 80 1016.7
20260831151502 77 234 1.0 5.0 0.00 0.09 0.00 80 1016.6
20260831151421 77 227 1.0 5.0 0.00 0.09 0.00 80 1016.6
20260831151023 77 211 1.0 5.0 0.00 0.09 0.00 80 1016.6
20260831150921 77 195 1.0 4.0 0.00 0.09 0.00 81 1016.6
20260831150523 77 185 0.0 3.0 0.00 0.09 0.00 81 1016.6
20260831150421 77 189 0.0 3.0 0.00 0.09 0.00 81 1016.6
20260831150026 77 201 0.0 3.0 0.00 0.10 0.00 82 1016.6
20260831145921 77 217 0.0 2.0 0.00 0.10 0.00 82 1016.6
20260831145502 76 217 0.0 2.0 0.00 0.10 0.00 83 1016.6
20260831145421 76 217 0.0 2.0 0.00 0.10 0.00 83 1016.6
20260831145002 76 217 0.0 2.0 0.00 0.10 0.00 83 1016.6
20260831144921 76 217 0.0 2.0 0.00 0.10 0.00 83 1016.6
20260831144523 76 217 0.0 3.0 0.00 0.10 0.00 83 1016.6
20260831144421 76 217 0.0 3.0 0.00 0.11 0.00 82 1016.6
20260831144002 76 217 1.0 4.0 0.00 0.11 0.00 82 1016.6
20260831143921 76 217 1.0 4.0 0.00 0.11 0.00 82 1016.6
20260831143524 76 217 1.0 4.0 0.00 0.11 0.00 82 1016.5
20260831143421 76 217 1.0 4.0 0.00 0.11 0.00 82 1016.6
20260831143002 76 217 1.0 3.0 0.00 0.11 0.00 82 1016.4
20260831142921 76 217 1.0 3.0 0.00 0.11 0.00 82 1016.4
20260831142502 76 227 1.0 4.0 0.00 0.12 0.00 83 1016.4
20260831142420 76 233 1.0 4.0 0.00 0.12 0.00 83 1016.4
20260831142023 76 245 1.0 4.0 0.00 0.12 0.00 83 1016.3
20260831141920 76 248 1.0 4.0 0.00 0.12 0.00 83 1016.3
20260831141502 75 266 1.0 3.0 0.00 0.12 0.00 83 1016.2
20260831141420 75 269 1.0 3.0 0.00 0.12 0.00 84 1016.3
20260831141023 75 269 0.0 3.0 0.00 0.13 0.00 85 1016.2
20260831140920 75 269 1.0 3.0 0.00 0.13 0.00 85 1016.3
20260831140502 74 269 0.0 3.0 0.00 0.14 0.00 85 1016.3
20260831140420 74 269 0.0 3.0 0.00 0.14 0.00 85 1016.3
20260831140002 74 269 0.0 3.0 0.00 0.14 0.00 86 1016.3
20260831135920 74 269 0.0 3.0 0.00 0.14 0.00 86 1016.2
20260831135502 74 0 0.0 0.0 0.00 0.15 0.00 87 1016.2
20260831135420 74 0 0.0 0.0 0.00 0.15 0.00 87 1016.2
20260831135002 74 0 0.0 0.0 0.00 0.16 0.00 87 1016.2
20260831134920 74 0 0.0 0.0 0.00 0.16 0.00 87 1016.2
20260831134503 74 0 0.0 0.0 0.00 0.17 0.00 87 1016.3
20260831134420 74 0 0.0 0.0 0.00 0.17 0.00 87 1016.4
20260831134002 74 0 0.0 0.0 0.00 0.19 0.00 87 1016.3
20260831133920 74 0 0.0 0.0 0.00 0.19 0.00 87 1016.4
20260831133502 74 0 0.0 0.0 0.00 0.20 0.00 87 1016.3
20260831133420 74 0 0.0 0.0 0.00 0.20 0.00 87 1016.3
20260831133024 74 0 0.0 0.0 0.00 0.21 0.00 88 1016.3
20260831132920 74 0 0.0 0.0 0.00 0.22 0.00 88 1016.3
20260831132502 74 0 0.0 0.0 0.00 0.23 0.00 88 1016.2
20260831132420 74 0 0.0 0.0 0.00 0.23 0.00 88 1016.2
20260831132023 73 0 0.0 0.0 0.00 0.24 0.00 89 1016.2
20260831131919 73 0 0.0 0.0 0.00 0.24 0.00 89 1016.1
20260831131505 73 0 0.0 0.0 0.00 0.25 0.00 89 1016.1
20260831131419 73 0 0.0 0.0 0.00 0.25 0.00 89 1016.1
20260831131023 73 0 0.0 0.0 0.00 0.26 0.00 89 1016.1
20260831130919 73 0 0.0 0.0 0.00 0.26 0.00 89 1016.1
20260831130503 73 0 0.0 0.0 0.00 0.26 0.00 89 1016.0
20260831130419 73 0 0.0 0.0 0.00 0.26 0.00 89 1016.0
20260831130005 73 0 0.0 0.0 0.00 0.26 0.00 89 1016.0
20260831125919 73 0 0.0 0.0 0.00 0.26 0.00 89 1016.0
20260831125502 73 0 0.0 0.0 0.00 0.26 0.00 89 1016.0
20260831125419 73 0 0.0 0.0 0.00 0.26 0.00 89 1016.0
20260831125002 72 269 0.0 1.0 0.00 0.26 0.00 89 1016.0
20260831124919 72 269 0.0 1.0 0.00 0.26 0.00 89 1016.0
20260831124502 72 269 0.0 1.0 0.00 0.26 0.00 90 1016.0
20260831124419 72 269 0.0 1.0 0.00 0.26 0.00 90 1016.0
20260831124002 72 0 0.0 0.0 0.00 0.26 0.00 90 1016.0
20260831123919 72 0 0.0 0.0 0.00 0.26 0.00 90 1016.0
20260831123503 72 0 0.0 0.0 0.00 0.26 0.00 90 1016.0
20260831123419 72 0 0.0 0.0 0.00 0.26 0.00 90 1016.0
20260831123023 72 0 0.0 0.0 0.00 0.26 0.00 90 1016.1
20260831122919 72 0 0.0 0.0 0.00 0.26 0.00 90 1016.1
20260831122506 72 0 0.0 0.0 0.00 0.26 0.00 90 1016.0
20260831122418 72 0 0.0 0.0 0.00 0.26 0.00 90 1016.0
20260831122002 72 267 0.0 1.0 0.00 0.26 0.00 90 1016.1
20260831121918 72 267 0.0 1.0 0.00 0.26 0.00 90 1016.0
20260831121523 72 267 0.0 1.0 0.00 0.26 0.00 90 1016.1
20260831121418 72 267 0.0 1.0 0.00 0.26 0.00 90 1016.1
20260831121003 71 0 0.0 0.0 0.00 0.26 0.00 90 1016.1
20260831120918 71 0 0.0 0.0 0.00 0.26 0.00 90 1016.0
20260831120523 71 0 0.0 0.0 0.00 0.26 0.00 90 1016.1
20260831120418 71 0 0.0 0.0 0.00 0.26 0.00 90 1016.2
20260831120003 71 0 0.0 0.0 0.00 0.26 0.00 90 1016.2
20260831115918 71 0 0.0 0.0 0.00 0.26 0.00 90 1016.2
20260831115502 71 0 0.0 0.0 0.00 0.26 0.00 90 1016.1
20260831115418 71 0 0.0 0.0 0.00 0.26 0.00 90 1016.1
20260831115023 71 0 0.0 0.0 0.00 0.26 0.00 90 1016.2
20260831114918 71 0 0.0 0.0 0.00 0.26 0.00 90 1016.3
20260831114503 71 0 0.0 0.0 0.00 0.26 0.00 90 1016.2
20260831114418 71 0 0.0 0.0 0.00 0.26 0.00 90 1016.2
20260831114023 71 0 0.0 0.0 0.00 0.26 0.00 90 1016.2
20260831113918 71 0 0.0 0.0 0.00 0.26 0.00 90 1016.2
20260831113502 71 0 0.0 0.0 0.00 0.26 0.00 90 1016.3
20260831113418 71 0 0.0 0.0 0.00 0.26 0.00 90 1016.3
20260831113006 71 0 0.0 0.0 0.00 0.26 0.00 90 1016.2
20260831112918 71 0 0.0 0.0 0.00 0.26 0.00 90 1016.3
20260831112502 71 0 0.0 0.0 0.00 0.26 0.00 90 1016.2
20260831112418 71 0 0.0 0.0 0.00 0.26 0.00 90 1016.1
20260831112002 71 0 0.0 0.0 0.00 0.26 0.00 90 1016.2
20260831111917 71 0 0.0 0.0 0.00 0.26 0.00 90 1016.2
20260831111506 71 0 0.0 0.0 0.00 0.26 0.00 90 1016.1
20260831111417 71 0 0.0 0.0 0.00 0.26 0.00 90 1016.1
20260831111003 71 0 0.0 0.0 0.00 0.26 0.00 90 1016.1
20260831110917 71 0 0.0 0.0 0.00 0.26 0.00 90 1016.1
20260831110502 71 0 0.0 0.0 0.00 0.26 0.00 90 1016.1
20260831110417 71 0 0.0 0.0 0.00 0.26 0.00 90 1016.1
20260831110005 71 0 0.0 0.0 0.00 0.26 0.00 90 1016.1
20260831105917 71 0 0.0 0.0 0.00 0.26 0.00 90 1016.2
20260831105502 71 0 0.0 0.0 0.00 0.26 0.00 90 1016.2
20260831105417 71 0 0.0 0.0 0.00 0.26 0.00 90 1016.2
20260831105024 71 0 0.0 0.0 0.00 0.26 0.00 90 1016.2
20260831104917 71 0 0.0 0.0 0.00 0.26 0.00 90 1016.1
20260831104524 71 0 0.0 0.0 0.00 0.26 0.00 90 1016.1
20260831104417 71 0 0.0 0.0 0.00 0.26 0.00 90 1016.1
20260831104002 71 0 0.0 0.0 0.00 0.27 0.00 90 1016.0
20260831103917 71 0 0.0 0.0 0.00 0.27 0.00 90 1016.0
20260831103502 71 0 0.0 0.0 0.00 0.27 0.00 90 1016.0
20260831103417 71 0 0.0 0.0 0.00 0.27 0.00 90 1016.0
20260831103003 71 0 0.0 0.0 0.00 0.27 0.00 90 1016.0
20260831102917 71 0 0.0 0.0 0.00 0.27 0.00 90 1016.0
20260831102503 71 0 0.0 0.0 0.00 0.27 0.00 90 1016.0
20260831102417 71 0 0.0 0.0 0.00 0.27 0.00 90 1016.0
20260831102002 71 0 0.0 0.0 0.00 0.27 0.00 90 1016.0
20260831101917 71 0 0.0 0.0 0.00 0.27 0.00 90 1016.0
20260831101502 71 0 0.0 0.0 0.00 0.27 0.00 90 1016.0
20260831101417 71 0 0.0 0.0 0.00 0.27 0.00 90 1016.0
20260831101003 71 0 0.0 0.0 0.00 0.27 0.00 90 1016.1
20260831100916 71 0 0.0 0.0 0.00 0.27 0.00 90 1016.1
20260831100505 71 0 0.0 0.0 0.00 0.27 0.00 90 1016.0
20260831100416 71 0 0.0 0.0 0.00 0.27 0.00 90 1016.0
20260831100002 71 0 0.0 0.0 0.00 0.27 0.00 90 1016.0
20260831095916 71 0 0.0 0.0 0.00 0.28 0.00 90 1016.0
20260831095524 71 0 0.0 0.0 0.00 0.28 0.00 90 1015.9
20260831095416 71 0 0.0 0.0 0.00 0.28 0.00 90 1016.0
20260831095006 71 0 0.0 0.0 0.00 0.28 0.00 89 1015.8
20260831094916 71 0 0.0 0.0 0.00 0.28 0.00 89 1015.8
20260831094503 71 0 0.0 0.0 0.00 0.28 0.00 89 1015.9
20260831094416 71 0 0.0 0.0 0.00 0.28 0.00 89 1015.9
20260831094006 71 0 0.0 0.0 0.00 0.28 0.00 89 1016.0
20260831093916 71 0 0.0 0.0 0.00 0.28 0.00 89 1016.0
20260831093523 71 0 0.0 0.0 0.00 0.28 0.00 89 1016.1
20260831093416 71 0 0.0 0.0 0.00 0.28 0.00 89 1016.0
20260831093003 71 0 0.0 0.0 0.00 0.28 0.00 89 1016.1
20260831092916 71 0 0.0 0.0 0.00 0.28 0.00 89 1016.1
20260831092524 71 0 0.0 0.0 0.00 0.28 0.00 89 1016.0
20260831092416 71 0 0.0 0.0 0.00 0.28 0.00 89 1016.0
20260831092002 71 0 0.0 0.0 0.00 0.28 0.00 89 1016.1
20260831091916 71 0 0.0 0.0 0.00 0.28 0.00 89 1016.2
20260831091502 71 0 0.0 0.0 0.00 0.28 0.00 89 1016.2
20260831091416 71 0 0.0 0.0 0.00 0.28 0.00 89 1016.2
20260831091003 71 0 0.0 0.0 0.00 0.28 0.00 89 1016.0
20260831090916 71 0 0.0 0.0 0.00 0.28 0.00 89 1016.0
20260831090503 71 0 0.0 0.0 0.00 0.28 0.00 89 1016.0
20260831090415 71 0 0.0 0.0 0.00 0.28 0.00 89 1016.0
20260831090002 71 0 0.0 0.0 0.00 0.28 0.00 88 1015.9
20260831085915 71 0 0.0 0.0 0.00 0.28 0.00 88 1015.9
20260831085523 71 0 0.0 0.0 0.00 0.28 0.00 88 1015.7
20260831085415 71 0 0.0 0.0 0.00 0.28 0.00 88 1015.7
20260831085002 71 0 0.0 0.0 0.00 0.28 0.00 88 1015.7
20260831084915 71 0 0.0 0.0 0.00 0.28 0.00 88 1015.7
20260831084503 71 0 0.0 0.0 0.00 0.28 0.00 88 1015.7
20260831084415 71 0 0.0 0.0 0.00 0.28 0.00 88 1015.6
20260831084003 71 0 0.0 0.0 0.00 0.28 0.00 88 1015.6
20260831083915 71 0 0.0 0.0 0.00 0.28 0.00 88 1015.6
20260831083506 71 0 0.0 0.0 0.00 0.28 0.00 88 1015.5
20260831083415 71 0 0.0 0.0 0.00 0.28 0.00 88 1015.6
20260831083002 71 0 0.0 0.0 0.00 0.28 0.00 88 1015.6
20260831082915 71 0 0.0 0.0 0.00 0.28 0.00 88 1015.5
20260831082523 71 0 0.0 0.0 0.00 0.28 0.00 88 1015.6
20260831082415 71 0 0.0 0.0 0.00 0.28 0.00 88 1015.6
20260831082003 71 0 0.0 0.0 0.00 0.28 0.00 88 1015.6
20260831081915 71 0 0.0 0.0 0.00 0.28 0.00 88 1015.6
20260831081503 71 0 0.0 0.0 0.00 0.28 0.00 88 1015.6
20260831081415 72 0 0.0 0.0 0.00 0.28 0.00 88 1015.6
20260831081027 71 0 0.0 0.0 0.00 0.28 0.00 88 1015.6
20260831080915 71 0 0.0 0.0 0.00 0.28 0.00 88 1015.6
20260831080524 71 0 0.0 0.0 0.00 0.28 0.00 88 1015.7
20260831080415 71 0 0.0 0.0 0.00 0.28 0.00 88 1015.7
20260831080003 71 0 0.0 0.0 0.00 0.28 0.00 88 1015.6
20260831075915 71 0 0.0 0.0 0.00 0.28 0.00 88 1015.6
20260831075503 71 0 0.0 0.0 0.00 0.28 0.00 88 1015.8
20260831075415 71 0 0.0 0.0 0.00 0.28 0.00 88 1015.8
20260831075003 71 0 0.0 0.0 0.00 0.28 0.00 88 1015.8
20260831074914 71 0 0.0 0.0 0.00 0.28 0.00 88 1015.8
20260831074505 71 0 0.0 0.0 0.00 0.28 0.00 88 1015.8
20260831074414 71 0 0.0 0.0 0.00 0.28 0.00 88 1015.8
20260831074003 71 0 0.0 0.0 0.00 0.28 0.00 88 1015.8
20260831073914 71 0 0.0 0.0 0.00 0.28 0.00 88 1015.8
20260831073503 71 0 0.0 0.0 0.00 0.28 0.00 88 1016.0
20260831073414 71 0 0.0 0.0 0.00 0.28 0.00 88 1015.9
20260831073003 71 0 0.0 0.0 0.00 0.28 0.00 88 1016.0
20260831072914 71 0 0.0 0.0 0.00 0.28 0.00 88 1016.0
20260831072503 71 0 0.0 0.0 0.00 0.28 0.00 88 1016.0
20260831072414 71 0 0.0 0.0 0.00 0.28 0.00 88 1015.9
20260831072002 71 0 0.0 0.0 0.00 0.28 0.00 88 1015.9
20260831071914 71 0 0.0 0.0 0.00 0.28 0.00 88 1015.9
20260831071503 71 0 0.0 0.0 0.00 0.28 0.00 88 1016.0
20260831071414 71 0 0.0 0.0 0.00 0.28 0.00 88 1016.1
20260831071003 71 0 0.0 0.0 0.00 0.28 0.00 88 1016.2
20260831070914 71 0 0.0 0.0 0.00 0.28 0.00 88 1016.2
20260831070503 72 0 0.0 0.0 0.00 0.28 0.00 88 1016.2
20260831070414 71 0 0.0 0.0 0.00 0.28 0.00 88 1016.3
20260831070027 72 0 0.0 0.0 0.00 0.28 0.00 88 1016.2
20260831065914 72 0 0.0 0.0 0.00 0.28 0.00 88 1016.2
20260831065523 72 0 0.0 0.0 0.00 0.28 0.00 87 1016.3
20260831065414 72 0 0.0 0.0 0.00 0.28 0.00 87 1016.3
20260831065003 72 0 0.0 0.0 0.00 0.28 0.00 87 1016.3
20260831064914 72 0 0.0 0.0 0.00 0.28 0.00 87 1016.3
20260831064503 72 0 0.0 0.0 0.00 0.28 0.00 87 1016.3
20260831064414 72 0 0.0 0.0 0.00 0.28 0.00 87 1016.4
20260831064003 72 0 0.0 0.0 0.00 0.28 0.00 87 1016.3
20260831063913 72 0 0.0 0.0 0.00 0.28 0.00 87 1016.3
20260831063523 72 0 0.0 0.0 0.00 0.28 0.00 87 1016.3
20260831063413 72 0 0.0 0.0 0.00 0.28 0.00 87 1016.3
20260831063003 72 0 0.0 0.0 0.00 0.28 0.00 87 1016.3
20260831062913 72 0 0.0 0.0 0.00 0.28 0.00 87 1016.3
20260831062503 72 0 0.0 0.0 0.00 0.28 0.00 86 1016.3
20260831062413 72 0 0.0 0.0 0.00 0.28 0.00 86 1016.3
20260831062006 72 0 0.0 0.0 0.00 0.28 0.00 86 1016.5
20260831061913 72 0 0.0 0.0 0.00 0.28 0.00 86 1016.5
20260831061502 72 0 0.0 0.0 0.00 0.28 0.00 86 1016.3
20260831061413 72 0 0.0 0.0 0.00 0.28 0.00 86 1016.3
20260831061003 72 0 0.0 0.0 0.00 0.28 0.00 86 1016.2
20260831060913 72 0 0.0 0.0 0.00 0.28 0.00 86 1016.3
20260831060503 72 0 0.0 0.0 0.00 0.28 0.00 86 1016.3
20260831060413 72 0 0.0 0.0 0.00 0.28 0.00 86 1016.3
20260831060024 72 0 0.0 0.0 0.00 0.28 0.00 86 1016.4
20260831055913 72 0 0.0 0.0 0.00 0.28 0.00 86 1016.4
20260831055503 72 0 0.0 0.0 0.00 0.28 0.00 86 1016.4
20260831055413 72 0 0.0 0.0 0.00 0.28 0.00 86 1016.4
20260831055003 72 0 0.0 0.0 0.00 0.28 0.00 86 1016.5
20260831054913 72 0 0.0 0.0 0.00 0.28 0.00 86 1016.6
20260831054503 72 0 0.0 0.0 0.00 0.28 0.00 86 1016.6
20260831054413 72 0 0.0 0.0 0.00 0.28 0.00 86 1016.6
20260831054003 72 0 0.0 0.0 0.00 0.28 0.00 86 1016.6
20260831053913 72 0 0.0 0.0 0.00 0.28 0.00 86 1016.6
20260831053503 72 265 0.0 1.0 0.00 0.28 0.00 86 1016.6
20260831053413 72 262 0.0 4.0 0.00 0.28 0.00 86 1016.5
20260831053006 72 211 0.0 4.0 0.00 0.28 0.00 86 1016.5
20260831052912 72 204 1.0 4.0 0.00 0.28 0.00 86 1016.5
20260831052524 72 199 1.0 4.0 0.00 0.28 0.00 86 1016.5
20260831052412 72 169 0.0 2.0 0.00 0.28 0.00 86 1016.5
20260831052003 72 169 0.0 2.0 0.00 0.28 0.00 86 1016.5
20260831051912 72 169 0.0 2.0 0.00 0.28 0.00 86 1016.5
20260831051503 72 169 0.0 2.0 0.00 0.28 0.00 86 1016.5
20260831051412 72 169 0.0 2.0 0.00 0.28 0.00 86 1016.5
20260831051003 72 169 0.0 1.0 0.00 0.28 0.00 86 1016.6
20260831050912 72 169 0.0 1.0 0.00 0.28 0.00 86 1016.6
20260831050524 72 169 0.0 1.0 0.00 0.28 0.00 86 1016.7
20260831050412 72 169 0.0 1.0 0.00 0.28 0.00 86 1016.7
20260831050003 72 169 0.0 2.0 0.00 0.28 0.00 86 1016.7
20260831045912 72 169 0.0 2.0 0.00 0.28 0.00 86 1016.7
20260831045503 72 169 0.0 2.0 0.00 0.28 0.00 86 1016.7
20260831045412 72 169 0.0 2.0 0.00 0.28 0.00 86 1016.7
20260831045003 72 169 0.0 2.0 0.00 0.28 0.00 86 1016.7
20260831044912 72 0 0.0 0.0 0.00 0.28 0.00 86 1016.7
20260831044504 73 169 0.0 1.0 0.00 0.28 0.00 86 1016.7
20260831044412 73 169 0.0 1.0 0.00 0.28 0.00 86 1016.7
20260831044003 73 169 0.0 1.0 0.00 0.28 0.00 86 1016.7
20260831043912 73 169 0.0 2.0 0.00 0.28 0.00 86 1016.7
20260831043506 73 169 0.0 2.0 0.00 0.28 0.00 85 1016.7
20260831043412 73 169 0.0 2.0 0.00 0.28 0.00 85 1016.7
20260831043003 73 169 0.0 2.0 0.00 0.28 0.00 85 1016.7
20260831042911 73 169 0.0 2.0 0.00 0.28 0.00 85 1016.7
20260831042503 73 169 0.0 4.0 0.00 0.28 0.00 85 1016.7
20260831042411 73 169 0.0 4.0 0.00 0.28 0.00 85 1016.7
20260831042003 73 169 0.0 4.0 0.00 0.28 0.00 85 1016.7
20260831041911 73 169 0.0 4.0 0.00 0.28 0.00 85 1016.6
20260831041527 73 169 0.0 4.0 0.00 0.28 0.00 85 1016.6
20260831041411 73 169 0.0 4.0 0.00 0.28 0.00 85 1016.6
20260831041003 73 169 1.0 4.0 0.00 0.28 0.00 85 1016.6
20260831040911 73 169 0.0 4.0 0.00 0.28 0.00 85 1016.6
20260831040503 73 169 1.0 4.0 0.00 0.28 0.00 85 1016.7
20260831040411 73 169 1.0 4.0 0.00 0.28 0.00 85 1016.6
20260831040003 73 169 1.0 5.0 0.00 0.28 0.00 85 1016.7
20260831035911 73 169 1.0 5.0 0.00 0.28 0.28 85 1016.6
20260831035503 73 169 1.0 5.0 0.00 0.28 0.28 85 1016.6
20260831035411 73 169 1.0 5.0 0.00 0.28 0.28 85 1016.6
20260831035003 73 169 1.0 5.0 0.00 0.28 0.28 85 1016.6
20260831034911 73 169 1.0 4.0 0.00 0.28 0.28 85 1016.7
20260831034503 73 169 1.0 4.0 0.00 0.28 0.28 85 1016.6
20260831034411 73 169 0.0 4.0 0.00 0.28 0.28 85 1016.5
20260831034003 72 169 0.0 4.0 0.00 0.28 0.28 85 1016.6
20260831033911 72 169 0.0 4.0 0.00 0.28 0.28 85 1016.7
20260831033527 72 169 1.0 4.0 0.00 0.28 0.28 86 1016.7
20260831033411 73 169 1.0 4.0 0.00 0.28 0.28 86 1016.7
20260831033004 72 169 0.0 4.0 0.00 0.28 0.28 86 1016.6
20260831032911 72 169 1.0 4.0 0.00 0.28 0.28 86 1016.7
20260831032503 72 169 0.0 4.0 0.00 0.28 0.28 86 1016.7
20260831032411 72 169 1.0 4.0 0.00 0.28 0.28 86 1016.7
20260831032003 72 169 0.0 4.0 0.00 0.28 0.28 86 1016.6
20260831031910 72 169 0.0 4.0 0.00 0.28 0.28 86 1016.6
20260831031503 72 169 1.0 4.0 0.00 0.28 0.28 86 1016.6
20260831031410 72 169 1.0 4.0 0.00 0.28 0.28 86 1016.6
20260831031003 72 163 1.0 6.0 0.00 0.28 0.28 86 1016.6
20260831030910 72 163 1.0 6.0 0.00 0.28 0.28 86 1016.6
20260831030503 72 167 1.0 6.0 0.00 0.28 0.28 86 1016.6
20260831030410 72 170 1.0 6.0 0.00 0.28 0.28 86 1016.6
20260831030006 72 182 1.0 3.0 0.00 0.28 0.28 86 1016.5
20260831025910 72 185 1.0 3.0 0.00 0.28 0.28 86 1016.6
20260831025503 72 195 0.0 3.0 0.00 0.28 0.28 86 1016.6
20260831025410 72 195 0.0 3.0 0.00 0.28 0.28 86 1016.6
20260831025025 72 190 0.0 5.0 0.00 0.28 0.28 86 1016.6
20260831024910 72 182 0.0 5.0 0.00 0.28 0.28 86 1016.6
20260831024506 72 172 1.0 5.0 0.00 0.28 0.28 86 1016.6
20260831024410 72 166 0.0 5.0 0.00 0.28 0.28 86 1016.5
20260831024003 72 146 1.0 3.0 0.00 0.28 0.28 86 1016.6
20260831023910 72 146 1.0 3.0 0.00 0.28 0.28 86 1016.7
20260831023504 72 146 1.0 3.0 0.00 0.28 0.28 86 1016.6
20260831023410 72 146 1.0 3.0 0.00 0.28 0.28 86 1016.6
20260831023003 72 145 1.0 3.0 0.00 0.28 0.28 86 1016.6
20260831022910 72 144 1.0 4.0 0.00 0.28 0.28 86 1016.7
20260831022503 72 140 1.0 4.0 0.00 0.28 0.28 86 1016.6
20260831022410 72 139 1.0 4.0 0.00 0.28 0.28 86 1016.6
20260831022003 72 133 1.0 4.0 0.00 0.28 0.28 86 1016.7
20260831021910 72 132 1.0 3.0 0.00 0.28 0.28 86 1016.6
20260831021503 72 132 1.0 3.0 0.00 0.28 0.28 86 1016.6
20260831021410 72 132 1.0 3.0 0.00 0.28 0.28 86 1016.6
20260831021003 72 132 1.0 4.0 0.00 0.28 0.28 86 1016.6
20260831020909 72 132 1.0 4.0 0.00 0.28 0.28 86 1016.6
20260831020503 72 132 1.0 4.0 0.00 0.28 0.28 86 1016.7
20260831020409 72 135 1.0 4.0 0.00 0.28 0.28 86 1016.7
20260831020003 72 147 1.0 4.0 0.00 0.28 0.28 86 1016.7
20260831015909 72 148 0.0 4.0 0.00 0.28 0.28 86 1016.7
20260831015503 73 161 0.0 4.0 0.00 0.28 0.28 87 1016.7
20260831015409 73 162 0.0 4.0 0.00 0.28 0.28 87 1016.7
20260831015004 73 165 1.0 5.0 0.00 0.28 0.28 87 1016.7
20260831014909 73 165 1.0 5.0 0.00 0.28 0.28 87 1016.7
20260831014507 73 162 2.0 5.0 0.00 0.28 0.28 87 1016.6
20260831014409 73 162 2.0 5.0 0.00 0.28 0.28 87 1016.6
20260831014024 73 154 2.0 5.0 0.00 0.28 0.28 87 1016.5
20260831013909 73 152 2.0 5.0 0.00 0.28 0.28 87 1016.5
20260831013524 73 147 2.0 5.0 0.00 0.28 0.28 87 1016.5
20260831013409 73 148 2.0 8.0 0.00 0.28 0.28 87 1016.6
20260831013028 73 152 2.0 8.0 0.00 0.28 0.28 87 1016.5
20260831012909 73 158 2.0 8.0 0.00 0.28 0.28 87 1016.4
20260831012503 73 170 2.0 8.0 0.00 0.28 0.28 87 1016.5
20260831012409 73 171 2.0 5.0 0.00 0.28 0.28 87 1016.5
20260831012003 73 175 2.0 6.0 0.00 0.28 0.28 87 1016.6
20260831011909 73 173 2.0 6.0 0.00 0.28 0.28 87 1016.6
20260831011504 73 169 2.0 6.0 0.00 0.28 0.28 87 1016.6
20260831011409 73 167 2.0 6.0 0.00 0.28 0.28 87 1016.6
20260831011004 73 163 2.0 8.0 0.00 0.28 0.28 87 1016.7
20260831010908 73 164 2.0 8.0 0.00 0.28 0.28 87 1016.7
20260831010504 73 158 2.0 8.0 0.00 0.28 0.28 87 1016.6
20260831010408 73 160 3.0 8.0 0.00 0.28 0.28 87 1016.6
20260831010003 73 160 3.0 7.0 0.00 0.28 0.28 87 1016.7
20260831005908 73 161 3.0 7.0 0.00 0.28 0.28 87 1016.6
20260831005503 73 162 3.0 9.0 0.00 0.28 0.28 87 1016.5
20260831005408 73 160 3.0 9.0 0.00 0.28 0.28 87 1016.5
20260831005024 73 160 3.0 10.0 0.00 0.28 0.28 87 1016.4
20260831004908 73 160 3.0 10.0 0.00 0.28 0.28 87 1016.4
20260831004501 73 161 3.0 10.0 0.00 0.28 0.28 87 1016.1
20260831004338 73 161 3.0 10.0 0.00 0.28 0.28 87 1016.1
20260831004001 73 158 3.0 6.0 0.00 0.28 0.28 88 1016.1
20260831003838 73 154 2.0 6.0 0.00 0.28 0.28 88 1016.1
20260831003505 73 153 2.0 6.0 0.00 0.28 0.28 88 1016.0
20260831003338 73 155 3.0 6.0 0.00 0.28 0.28 87 1016.1
20260831003001 73 158 3.0 6.0 0.00 0.28 0.28 87 1016.0
20260831002838 73 161 3.0 7.0 0.00 0.28 0.28 87 1016.1
20260831002501 73 160 3.0 9.0 0.00 0.28 0.28 87 1016.0
20260831002338 73 154 3.0 9.0 0.00 0.28 0.28 87 1016.0
20260831002005 73 149 3.0 9.0 0.00 0.28 0.28 87 1016.1
20260831001838 73 146 3.0 9.0 0.00 0.28 0.28 87 1016.2
20260831001502 73 145 3.0 8.0 0.00 0.28 0.28 87 1016.1
20260831001338 73 145 3.0 7.0 0.00 0.28 0.28 87 1016.1
20260831001001 73 145 3.0 7.0 0.00 0.28 0.28 87 1016.1
20260831000838 73 143 3.0 9.0 0.00 0.28 0.28 87 1016.1
20260831000502 73 141 3.0 9.0 0.00 0.28 0.28 87 1016.2
20260831000340 73 142 4.0 9.0 0.00 0.28 0.28 87 1016.1
20260830235837 73 141 4.0 9.0 0.00 0.28 0.28 87 1016.3
20260830235501 73 140 3.0 8.0 0.00 0.28 0.28 87 1016.3
20260830235337 73 140 3.0 8.0 0.00 0.28 0.28 87 1016.4
20260830235001 73 139 3.0 8.0 0.00 0.28 0.28 87 1016.4
20260830234837 73 138 3.0 8.0 0.00 0.28 0.28 87 1016.5
20260830234501 73 136 3.0 8.0 0.00 0.28 0.28 87 1016.5
20260830234337 73 135 2.0 8.0 0.00 0.28 0.28 87 1016.6
20260830234001 73 137 2.0 4.0 0.00 0.28 0.28 87 1016.7
20260830233837 73 141 2.0 4.0 0.00 0.28 0.28 86 1016.7
20260830233501 73 147 2.0 4.0 0.00 0.28 0.28 86 1016.8
20260830233337 73 152 2.0 5.0 0.00 0.28 0.28 86 1016.9
20260830233002 73 158 2.0 5.0 0.00 0.28 0.28 86 1017.0
20260830232837 73 156 2.0 5.0 0.00 0.28 0.28 86 1017.1
20260830232501 73 158 1.0 5.0 0.00 0.28 0.28 87 1017.2
20260830232337 73 156 1.0 4.0 0.00 0.28 0.28 86 1017.3
20260830232001 73 151 1.0 5.0 0.00 0.28 0.28 86 1017.4
20260830231837 73 158 1.0 5.0 0.00 0.28 0.28 86 1017.4
20260830231501 73 156 1.0 5.0 0.00 0.28 0.28 85 1017.4
20260830231337 73 154 1.0 5.0 0.00 0.28 0.28 85 1017.5
20260830231002 73 152 1.0 3.0 0.00 0.28 0.28 85 1017.5
20260830230837 73 149 0.0 3.0 0.00 0.28 0.28 86 1017.4
20260830230523 73 137 0.0 2.0 0.00 0.28 0.28 87 1017.5
20260830230336 73 0 0.0 0.0 0.00 0.28 0.28 87 1017.4
20260830230001 73 0 0.0 0.0 0.00 0.28 0.28 87 1017.5
20260830225836 73 0 0.0 0.0 0.00 0.28 0.28 87 1017.4
20260830225502 72 0 0.0 0.0 0.00 0.28 0.28 87 1017.4
20260830225336 72 0 0.0 0.0 0.00 0.28 0.28 87 1017.3
20260830225002 72 0 0.0 0.0 0.00 0.28 0.28 87 1017.5
20260830224836 72 0 0.0 0.0 0.00 0.28 0.28 87 1017.5